IT9DBI-3 Weather Reports


time (UTC)temp
C
wind
direction
speed
KPH
gust
KPH
rain 1hr
cm
rain 24hr
cm
rain mn
cm
humidity
%
barometer
mb
20260507103123 25 0.0 0.0 0.00 0.00 0.00 22 1009.0
20260507101122 24 0.0 0.0 0.00 0.00 0.00 22 1009.0
20260507095121 23 0.0 0.0 0.00 0.00 0.00 23 1009.5
20260507093119 23 0.0 0.0 0.00 0.00 0.00 24 1009.7
20260507091119 23 0.0 0.0 0.00 0.00 0.00 25 1009.7
20260507085116 23 0.0 0.0 0.00 0.00 0.00 25 1009.7
20260507083115 22 0.0 0.0 0.00 0.00 0.00 28 1010.0
20260507081113 22 0.0 0.0 0.00 0.00 0.00 29 1010.0
20260507075112 22 0.0 0.0 0.00 0.00 0.00 32 1010.4
20260507073111 21 0.0 0.0 0.00 0.00 0.00 33 1010.8
20260507071109 20 0.0 0.0 0.00 0.00 0.00 35 1011.1
20260507065108 20 0.0 0.0 0.00 0.00 0.00 38 1011.1
20260507063107 19 0.0 0.0 0.00 0.00 0.00 46 1011.4
20260507061105 18 0.0 0.0 0.00 0.00 0.00 51 1011.4
20260507055059 18 0.0 0.0 0.00 0.00 0.00 53 1011.6
20260507053057 17 0.0 0.0 0.00 0.00 0.00 49 1011.5
20260507051056 16 0.0 0.0 0.00 0.00 0.00 50 1011.5
20260507045054 16 0.0 0.0 0.00 0.00 0.00 43 1011.5
20260507043053 16 0.0 0.0 0.00 0.00 0.00 48 1011.6
20260507041052 16 0.0 0.0 0.00 0.00 0.00 45 1011.6
20260507035051 16 0.0 0.0 0.00 0.00 0.00 49 1011.8
20260507033049 16 0.0 0.0 0.00 0.00 0.00 45 1011.5
20260507031048 16 0.0 0.0 0.00 0.00 0.00 47 1011.7
20260507025047 16 0.0 0.0 0.00 0.00 0.00 47 1011.6
20260507023045 17 0.0 0.0 0.00 0.00 0.00 44 1011.6
20260507021044 18 0.0 0.0 0.00 0.00 0.00 32 1011.5
20260507015043 18 0.0 0.0 0.00 0.00 0.00 41 1011.6
20260507013041 18 0.0 0.0 0.00 0.00 0.00 36 1011.2
20260507011040 17 0.0 0.0 0.00 0.00 0.00 45 1011.7
20260507005039 17 0.0 0.0 0.00 0.00 0.00 45 1011.2
20260507003037 19 0.0 0.0 0.00 0.00 0.00 36 1011.4
20260507001036 19 0.0 0.0 0.00 0.00 0.00 35 1011.6
20260506235035 20 0.0 0.0 0.00 0.00 0.00 33 1011.6
20260506233033 20 0.0 0.0 0.00 0.00 0.00 32 1011.6
20260506231032 20 0.0 0.0 0.00 0.00 0.00 31 1011.8
20260506225031 20 0.0 0.0 0.00 0.00 0.00 30 1011.8
20260506223029 20 0.0 0.0 0.00 0.00 0.00 28 1011.7
20260506221027 21 0.0 0.0 0.00 0.00 0.00 25 1011.8
20260506215023 21 0.0 0.0 0.00 0.00 0.00 23 1011.0
20260506213021 20 0.0 0.0 0.00 0.00 0.00 25 1011.1
20260506211020 18 0.0 0.0 0.00 0.00 0.00 33 1010.4
20260506205021 18 0.0 0.0 0.00 0.00 0.00 38 1011.1
20260506203017 18 0.0 0.0 0.00 0.00 0.00 35 1011.2
20260506201015 19 0.0 0.0 0.00 0.00 0.00 28 1011.6
20260506195013 20 0.0 0.0 0.00 0.00 0.00 24 1012.0
20260506193012 20 0.0 0.0 0.00 0.00 0.00 25 1011.9
20260506191010 18 0.0 0.0 0.00 0.00 0.00 51 1012.0
20260506185009 18 0.0 0.0 0.00 0.00 0.00 53 1012.2
20260506183007 18 0.0 0.0 0.00 0.00 0.00 60 1012.2
20260506181003 19 0.0 0.0 0.00 0.00 0.00 57 1012.2
20260506175002 20 0.0 0.0 0.00 0.00 0.00 57 1012.0
20260506173000 20 0.0 0.0 0.00 0.00 0.00 55 1011.6
20260506170956 21 0.0 0.0 0.00 0.00 0.00 55 1011.6
20260506164954 21 0.0 0.0 0.00 0.00 0.00 57 1011.9
20260506162953 21 0.0 0.0 0.00 0.00 0.00 61 1011.9
20260506160952 22 0.0 0.0 0.00 0.00 0.00 44 1011.9
20260506154950 24 0.0 0.0 0.00 0.00 0.00 28 1011.8
20260506152949 23 0.0 0.0 0.00 0.00 0.00 27 1011.6
20260506150948 24 0.0 0.0 0.00 0.00 0.00 26 1011.7
20260506144946 25 0.0 0.0 0.00 0.00 0.00 30 1011.5
20260506142945 27 0.0 0.0 0.00 0.00 0.00 22 1011.4
20260506140944 27 0.0 0.0 0.00 0.00 0.00 26 1011.1
20260506134942 29 0.0 0.0 0.00 0.00 0.00 23 1011.1
20260506132941 27 0.0 0.0 0.00 0.00 0.00 25 1011.2
20260506130940 30 0.0 0.0 0.00 0.00 0.00 26 1011.1
20260506124938 28 0.0 0.0 0.00 0.00 0.00 28 1011.6
20260506122937 26 0.0 0.0 0.00 0.00 0.00 32 1011.8
20260506120936 27 0.0 0.0 0.00 0.00 0.00 36 1011.6
20260506114935 24 0.0 0.0 0.00 0.00 0.00 39 1012.1
20260506112933 26 0.0 0.0 0.00 0.00 0.00 41 1012.1
20260506110932 24 0.0 0.0 0.00 0.00 0.00 44 1012.6
20260506104931 26 0.0 0.0 0.00 0.00 0.00 41 1012.6